Year,Month,Day,Hour,Minute,Value (Times are PST for temperature in C)
2011,04,27,00,00,7.60
2011,04,27,00,01,7.60
2011,04,27,00,02,7.60
2011,04,27,00,03,7.60
2011,04,27,00,04,7.60
2011,04,27,00,05,7.60
2011,04,27,00,06,7.60
2011,04,27,00,07,7.60
2011,04,27,00,08,7.60
2011,04,27,00,09,7.60
2011,04,27,00,10,7.70
2011,04,27,00,11,7.70
2011,04,27,00,12,7.70
2011,04,27,00,13,7.70
2011,04,27,00,14,7.70
2011,04,27,00,15,7.70
2011,04,27,00,16,7.70
2011,04,27,00,17,7.70
2011,04,27,00,18,7.70
2011,04,27,00,19,7.70
2011,04,27,00,20,7.70
2011,04,27,00,21,7.60
2011,04,27,00,22,7.60
2011,04,27,00,23,7.70
2011,04,27,00,24,7.70
2011,04,27,00,25,7.70
2011,04,27,00,26,7.70
2011,04,27,00,27,7.70
2011,04,27,00,28,7.70
2011,04,27,00,29,7.60
2011,04,27,00,30,7.60
2011,04,27,00,31,7.60
2011,04,27,00,32,7.60
2011,04,27,00,33,7.60
2011,04,27,00,34,7.60
2011,04,27,00,35,7.60
2011,04,27,00,36,7.60
2011,04,27,00,37,7.60
2011,04,27,00,38,7.60
2011,04,27,00,39,7.60
2011,04,27,00,40,7.60
2011,04,27,00,41,7.60
2011,04,27,00,42,7.60
2011,04,27,00,43,7.60
2011,04,27,00,44,7.60
2011,04,27,00,45,7.60
2011,04,27,00,46,7.60
2011,04,27,00,47,7.60
2011,04,27,00,48,7.70
2011,04,27,00,49,7.70
2011,04,27,00,50,7.70
2011,04,27,00,51,7.70
2011,04,27,00,52,7.70
2011,04,27,00,53,7.70
2011,04,27,00,54,7.80
2011,04,27,00,55,7.80
2011,04,27,00,56,7.80
2011,04,27,00,57,7.80
2011,04,27,00,58,7.80
2011,04,27,00,59,7.80
2011,04,27,01,00,7.80
2011,04,27,01,01,7.80
2011,04,27,01,02,7.80
2011,04,27,01,03,7.80
2011,04,27,01,04,7.80
2011,04,27,01,05,7.80
2011,04,27,01,06,7.80
2011,04,27,01,07,7.80
2011,04,27,01,08,7.80
2011,04,27,01,09,7.80
2011,04,27,01,10,7.80
2011,04,27,01,11,7.80
2011,04,27,01,12,7.80
2011,04,27,01,13,7.80
2011,04,27,01,14,7.80
2011,04,27,01,15,7.80
2011,04,27,01,16,7.80
2011,04,27,01,17,7.80
2011,04,27,01,18,7.80
2011,04,27,01,19,7.80
2011,04,27,01,20,7.80
2011,04,27,01,21,7.80
2011,04,27,01,22,7.80
2011,04,27,01,23,7.80
2011,04,27,01,24,7.90
2011,04,27,01,25,7.90
2011,04,27,01,26,7.90
2011,04,27,01,27,7.90
2011,04,27,01,28,7.90
2011,04,27,01,29,7.90
2011,04,27,01,30,7.90
2011,04,27,01,31,7.90
2011,04,27,01,32,7.90
2011,04,27,01,33,8.00
2011,04,27,01,34,8.00
2011,04,27,01,35,8.00
2011,04,27,01,36,8.00
2011,04,27,01,37,8.00
2011,04,27,01,38,8.00
2011,04,27,01,39,8.00
2011,04,27,01,40,7.90
2011,04,27,01,41,7.90
2011,04,27,01,42,8.00
2011,04,27,01,43,7.90
2011,04,27,01,44,7.90
2011,04,27,01,45,8.00
2011,04,27,01,46,7.90
2011,04,27,01,47,8.00
2011,04,27,01,48,8.00
2011,04,27,01,49,8.00
2011,04,27,01,50,8.00
2011,04,27,01,51,8.00
2011,04,27,01,52,8.00
2011,04,27,01,53,8.00
2011,04,27,01,54,8.10
2011,04,27,01,55,8.10
2011,04,27,01,56,8.00
2011,04,27,01,57,8.10
2011,04,27,01,58,8.10
2011,04,27,01,59,8.10
2011,04,27,02,00,8.10
2011,04,27,02,01,8.10
2011,04,27,02,02,8.10
2011,04,27,02,03,8.10
2011,04,27,02,04,8.00
2011,04,27,02,05,8.00
2011,04,27,02,06,8.00
2011,04,27,02,07,8.00
2011,04,27,02,08,8.00
2011,04,27,02,09,8.00
2011,04,27,02,10,7.90
2011,04,27,02,11,7.90
2011,04,27,02,12,7.90
2011,04,27,02,13,7.90
2011,04,27,02,14,7.90
2011,04,27,02,15,7.90
2011,04,27,02,16,7.90
2011,04,27,02,17,7.90
2011,04,27,02,18,7.90
2011,04,27,02,19,7.90
2011,04,27,02,20,7.90
2011,04,27,02,21,7.90
2011,04,27,02,22,7.90
2011,04,27,02,23,7.90
2011,04,27,02,24,7.90
2011,04,27,02,25,7.90
2011,04,27,02,26,7.90
2011,04,27,02,27,7.90
2011,04,27,02,28,8.00
2011,04,27,02,29,8.00
2011,04,27,02,30,8.00
2011,04,27,02,31,8.00
2011,04,27,02,32,8.00
2011,04,27,02,33,8.00
2011,04,27,02,34,8.00
2011,04,27,02,35,8.00
2011,04,27,02,36,8.00
2011,04,27,02,37,8.00
2011,04,27,02,38,8.00
2011,04,27,02,39,8.00
2011,04,27,02,40,8.00
2011,04,27,02,41,8.00
2011,04,27,02,42,8.00
2011,04,27,02,43,8.00
2011,04,27,02,44,8.00
2011,04,27,02,45,8.00
2011,04,27,02,46,8.00
2011,04,27,02,47,8.00
2011,04,27,02,48,8.00
2011,04,27,02,49,8.00
2011,04,27,02,50,8.00
2011,04,27,02,51,8.00
2011,04,27,02,52,8.00
2011,04,27,02,53,8.00
2011,04,27,02,54,8.00
2011,04,27,02,55,8.00
2011,04,27,02,56,7.90
2011,04,27,02,57,7.90
2011,04,27,02,58,7.90
2011,04,27,02,59,7.90
2011,04,27,03,00,7.90
2011,04,27,03,01,7.90
2011,04,27,03,02,8.00
2011,04,27,03,03,7.90
2011,04,27,03,04,7.90
2011,04,27,03,05,7.90
2011,04,27,03,06,7.90
2011,04,27,03,07,7.90
2011,04,27,03,08,7.90
2011,04,27,03,09,7.90
2011,04,27,03,10,7.90
2011,04,27,03,11,7.90
2011,04,27,03,12,7.90
2011,04,27,03,13,7.90
2011,04,27,03,14,7.90
2011,04,27,03,15,7.90
2011,04,27,03,16,7.90
2011,04,27,03,17,7.90
2011,04,27,03,18,7.90
2011,04,27,03,19,7.90
2011,04,27,03,20,7.80
2011,04,27,03,21,7.80
2011,04,27,03,22,7.80
2011,04,27,03,23,7.80
2011,04,27,03,24,7.80
2011,04,27,03,25,7.80
2011,04,27,03,26,7.70
2011,04,27,03,27,7.70
2011,04,27,03,28,7.70
2011,04,27,03,29,7.70
2011,04,27,03,30,7.70
2011,04,27,03,31,7.70
2011,04,27,03,32,7.60
2011,04,27,03,33,7.60
2011,04,27,03,34,7.60
2011,04,27,03,35,7.60
2011,04,27,03,36,7.60
2011,04,27,03,37,7.60
2011,04,27,03,38,7.60
2011,04,27,03,39,7.60
2011,04,27,03,40,7.60
2011,04,27,03,41,7.60
2011,04,27,03,42,7.60
2011,04,27,03,43,7.60
2011,04,27,03,44,7.60
2011,04,27,03,45,7.60
2011,04,27,03,46,7.60
2011,04,27,03,47,7.60
2011,04,27,03,48,7.60
2011,04,27,03,49,7.60
2011,04,27,03,50,7.60
2011,04,27,03,51,7.60
2011,04,27,03,52,7.60
2011,04,27,03,53,7.60
2011,04,27,03,54,7.60
2011,04,27,03,55,7.60
2011,04,27,03,56,7.60
2011,04,27,03,57,7.60
2011,04,27,03,58,7.60
2011,04,27,03,59,7.60
2011,04,27,04,00,7.50
2011,04,27,04,01,7.50
2011,04,27,04,02,7.50
2011,04,27,04,03,7.50
2011,04,27,04,04,7.50
2011,04,27,04,05,7.50
2011,04,27,04,06,7.50
2011,04,27,04,07,7.50
2011,04,27,04,08,7.40
2011,04,27,04,09,7.40
2011,04,27,04,10,7.40
2011,04,27,04,11,7.40
2011,04,27,04,12,7.40
2011,04,27,04,13,7.40
2011,04,27,04,14,7.40
2011,04,27,04,15,7.40
2011,04,27,04,16,7.30
2011,04,27,04,17,7.30
2011,04,27,04,18,7.30
2011,04,27,04,19,7.30
2011,04,27,04,20,7.30
2011,04,27,04,21,7.30
2011,04,27,04,22,7.30
2011,04,27,04,23,7.30
2011,04,27,04,24,7.30
2011,04,27,04,25,7.30
2011,04,27,04,26,7.30
2011,04,27,04,27,7.30
2011,04,27,04,28,7.30
2011,04,27,04,29,7.30
2011,04,27,04,30,7.30
2011,04,27,04,31,7.30
2011,04,27,04,32,7.30
2011,04,27,04,33,7.30
2011,04,27,04,34,7.30
2011,04,27,04,35,7.30
2011,04,27,04,36,7.30
2011,04,27,04,37,7.30
2011,04,27,04,38,7.30
2011,04,27,04,39,7.30
2011,04,27,04,40,7.30
2011,04,27,04,41,7.30
2011,04,27,04,42,7.30
2011,04,27,04,43,7.30
2011,04,27,04,44,7.30
2011,04,27,04,45,7.30
2011,04,27,04,46,7.30
2011,04,27,04,47,7.30
2011,04,27,04,48,7.30
2011,04,27,04,49,7.30
2011,04,27,04,50,7.30
2011,04,27,04,51,7.30
2011,04,27,04,52,7.30
2011,04,27,04,53,7.30
2011,04,27,04,54,7.30
2011,04,27,04,55,7.40
2011,04,27,04,56,7.40
2011,04,27,04,57,7.40
2011,04,27,04,58,7.40
2011,04,27,04,59,7.40
2011,04,27,05,00,7.40
2011,04,27,05,01,7.40
2011,04,27,05,02,7.30
2011,04,27,05,03,7.30
2011,04,27,05,04,7.30
2011,04,27,05,05,7.30
2011,04,27,05,06,7.30
2011,04,27,05,07,7.20
2011,04,27,05,08,7.20
2011,04,27,05,09,7.10
2011,04,27,05,10,7.10
2011,04,27,05,11,7.00
2011,04,27,05,12,7.00
2011,04,27,05,13,6.90
2011,04,27,05,14,6.90
2011,04,27,05,15,6.90
2011,04,27,05,16,6.80
2011,04,27,05,17,6.80
2011,04,27,05,18,6.80
2011,04,27,05,19,6.80
2011,04,27,05,20,6.80
2011,04,27,05,21,6.80
2011,04,27,05,22,6.80
2011,04,27,05,23,6.80
2011,04,27,05,24,6.80
2011,04,27,05,25,6.80
2011,04,27,05,26,6.80
2011,04,27,05,27,6.80
2011,04,27,05,28,6.80
2011,04,27,05,29,6.80
2011,04,27,05,30,6.80
2011,04,27,05,31,6.80
2011,04,27,05,32,6.80
2011,04,27,05,33,6.70
2011,04,27,05,34,6.70
2011,04,27,05,35,6.70
2011,04,27,05,36,6.70
2011,04,27,05,37,6.70
2011,04,27,05,38,6.70
2011,04,27,05,39,6.70
2011,04,27,05,40,6.70
2011,04,27,05,41,6.70
2011,04,27,05,42,6.70
2011,04,27,05,43,6.70
2011,04,27,05,44,6.70
2011,04,27,05,45,6.60
2011,04,27,05,46,6.60
2011,04,27,05,47,6.60
2011,04,27,05,48,6.60
2011,04,27,05,49,6.60
2011,04,27,05,50,6.60
2011,04,27,05,51,6.50
2011,04,27,05,52,6.50
2011,04,27,05,53,6.60
2011,04,27,05,54,6.50
2011,04,27,05,55,6.50
2011,04,27,05,56,6.50
2011,04,27,05,57,6.50
2011,04,27,05,58,6.50
2011,04,27,05,59,6.50
2011,04,27,06,00,6.50
2011,04,27,06,01,6.50
2011,04,27,06,02,6.50
2011,04,27,06,03,6.60
2011,04,27,06,04,6.60
2011,04,27,06,05,6.60
2011,04,27,06,06,6.60
2011,04,27,06,07,6.60
2011,04,27,06,08,6.60
2011,04,27,06,09,6.60
2011,04,27,06,10,6.60
2011,04,27,06,11,6.60
2011,04,27,06,12,6.60
2011,04,27,06,13,6.60
2011,04,27,06,14,6.60
2011,04,27,06,15,6.60
2011,04,27,06,16,6.60
2011,04,27,06,17,6.60
2011,04,27,06,18,6.60
2011,04,27,06,19,6.60
2011,04,27,06,20,6.60
2011,04,27,06,21,6.60
2011,04,27,06,22,6.60
2011,04,27,06,23,6.60
2011,04,27,06,24,6.50
2011,04,27,06,25,6.50
2011,04,27,06,26,6.50
2011,04,27,06,27,6.50
2011,04,27,06,28,6.50
2011,04,27,06,29,6.50
2011,04,27,06,30,6.50
2011,04,27,06,31,6.50
2011,04,27,06,32,6.40
2011,04,27,06,33,6.40
2011,04,27,06,34,6.40
2011,04,27,06,35,6.40
2011,04,27,06,36,6.40
2011,04,27,06,37,6.40
2011,04,27,06,38,6.40
2011,04,27,06,39,6.40
2011,04,27,06,40,6.40
2011,04,27,06,41,6.40
2011,04,27,06,42,6.40
2011,04,27,06,43,6.40
2011,04,27,06,44,6.40
2011,04,27,06,45,6.40
2011,04,27,06,46,6.40
2011,04,27,06,47,6.40
2011,04,27,06,48,6.40
2011,04,27,06,49,6.50
2011,04,27,06,50,6.50
2011,04,27,06,51,6.50
2011,04,27,06,52,6.50
2011,04,27,06,53,6.60
2011,04,27,06,54,6.60
2011,04,27,06,55,6.60
2011,04,27,06,56,6.60
2011,04,27,06,57,6.60
2011,04,27,06,58,6.60
2011,04,27,06,59,6.60
2011,04,27,07,00,6.60
2011,04,27,07,01,6.60
2011,04,27,07,02,6.60
2011,04,27,07,03,6.60
2011,04,27,07,04,6.60
2011,04,27,07,05,6.60
2011,04,27,07,06,6.60
2011,04,27,07,07,6.60
2011,04,27,07,08,6.60
2011,04,27,07,09,6.60
2011,04,27,07,10,6.70
2011,04,27,07,11,6.70
2011,04,27,07,12,6.70
2011,04,27,07,13,6.70
2011,04,27,07,14,6.70
2011,04,27,07,15,6.70
2011,04,27,07,16,6.70
2011,04,27,07,17,6.70
2011,04,27,07,18,6.70
2011,04,27,07,19,6.70
2011,04,27,07,20,6.70
2011,04,27,07,21,6.70
2011,04,27,07,22,6.70
2011,04,27,07,23,6.70
2011,04,27,07,24,6.80
2011,04,27,07,25,6.80
2011,04,27,07,26,6.80
2011,04,27,07,27,6.80
2011,04,27,07,28,6.80
2011,04,27,07,29,6.90
2011,04,27,07,30,6.90
2011,04,27,07,31,6.90
2011,04,27,07,32,6.90
2011,04,27,07,33,7.00
2011,04,27,07,34,7.00
2011,04,27,07,35,7.10
2011,04,27,07,36,7.10
2011,04,27,07,37,7.20
2011,04,27,07,38,7.20
2011,04,27,07,39,7.20
2011,04,27,07,40,7.20
2011,04,27,07,41,7.20
2011,04,27,07,42,7.20
2011,04,27,07,43,7.30
2011,04,27,07,44,7.30
2011,04,27,07,45,7.30
2011,04,27,07,46,7.30
2011,04,27,07,47,7.30
2011,04,27,07,48,7.30
2011,04,27,07,49,7.30
2011,04,27,07,50,7.40
2011,04,27,07,51,7.40
2011,04,27,07,52,7.50
2011,04,27,07,53,7.50
2011,04,27,07,54,7.60
2011,04,27,07,55,7.60
2011,04,27,07,56,7.60
2011,04,27,07,57,7.60
2011,04,27,07,58,7.60
2011,04,27,07,59,7.70
2011,04,27,08,00,7.70
2011,04,27,08,01,7.70
2011,04,27,08,02,7.70
2011,04,27,08,03,7.70
2011,04,27,08,04,7.70
2011,04,27,08,05,7.70
2011,04,27,08,06,7.80
2011,04,27,08,07,7.90
2011,04,27,08,08,8.00
2011,04,27,08,09,8.10
2011,04,27,08,10,8.10
2011,04,27,08,11,8.20
2011,04,27,08,12,8.30
2011,04,27,08,13,8.30
2011,04,27,08,14,8.30
2011,04,27,08,15,8.30
2011,04,27,08,16,8.30
2011,04,27,08,17,8.30
2011,04,27,08,18,8.30
2011,04,27,08,19,8.20
2011,04,27,08,20,8.20
2011,04,27,08,21,8.20
2011,04,27,08,22,8.20
2011,04,27,08,23,8.30
2011,04,27,08,24,8.30
2011,04,27,08,25,8.40
2011,04,27,08,26,8.50
2011,04,27,08,27,8.50
2011,04,27,08,28,8.60
2011,04,27,08,29,8.60
2011,04,27,08,30,8.60
2011,04,27,08,31,8.60
2011,04,27,08,32,8.50
2011,04,27,08,33,8.50
2011,04,27,08,34,8.50
2011,04,27,08,35,8.50
2011,04,27,08,36,8.40
2011,04,27,08,37,8.40
2011,04,27,08,38,8.50
2011,04,27,08,39,8.60
2011,04,27,08,40,8.70
2011,04,27,08,41,8.70
2011,04,27,08,42,8.70
2011,04,27,08,43,8.70
2011,04,27,08,44,8.70
2011,04,27,08,45,8.70
2011,04,27,08,46,8.80
2011,04,27,08,47,8.90
2011,04,27,08,48,8.90
2011,04,27,08,49,8.90
2011,04,27,08,50,8.80
2011,04,27,08,51,8.80
2011,04,27,08,52,8.90
2011,04,27,08,53,9.00
2011,04,27,08,54,9.00
2011,04,27,08,55,9.00
2011,04,27,08,56,9.00
2011,04,27,08,57,9.10
2011,04,27,08,58,9.20
2011,04,27,08,59,9.30
2011,04,27,09,00,9.30
2011,04,27,09,01,9.30
2011,04,27,09,02,9.20
2011,04,27,09,03,9.20
2011,04,27,09,04,9.10
2011,04,27,09,05,9.00
2011,04,27,09,06,8.90
2011,04,27,09,07,8.90
2011,04,27,09,08,8.90
2011,04,27,09,09,8.90
2011,04,27,09,10,8.80
2011,04,27,09,11,8.80
2011,04,27,09,12,8.80
2011,04,27,09,13,8.80
2011,04,27,09,14,8.90
2011,04,27,09,15,8.90
2011,04,27,09,16,8.90
2011,04,27,09,17,8.90
2011,04,27,09,18,8.90
2011,04,27,09,19,8.80
2011,04,27,09,20,8.80
2011,04,27,09,21,8.90
2011,04,27,09,22,8.90
2011,04,27,09,23,8.90
2011,04,27,09,24,8.90
2011,04,27,09,25,8.80
2011,04,27,09,26,8.80
2011,04,27,09,27,8.80
2011,04,27,09,28,8.80
2011,04,27,09,29,8.70
2011,04,27,09,30,8.70
2011,04,27,09,31,8.70
2011,04,27,09,32,8.80
2011,04,27,09,33,8.90
2011,04,27,09,34,9.00
2011,04,27,09,35,9.20
2011,04,27,09,36,9.20
2011,04,27,09,37,9.30
2011,04,27,09,38,9.20
2011,04,27,09,39,9.20
2011,04,27,09,40,9.10
2011,04,27,09,41,9.00
2011,04,27,09,42,8.90
2011,04,27,09,43,8.90
2011,04,27,09,44,8.90
2011,04,27,09,45,8.90
2011,04,27,09,46,9.00
2011,04,27,09,47,9.10
2011,04,27,09,48,9.20
2011,04,27,09,49,9.20
2011,04,27,09,50,9.20
2011,04,27,09,51,9.20
2011,04,27,09,52,9.10
2011,04,27,09,53,9.10
2011,04,27,09,54,9.10
2011,04,27,09,55,9.10
2011,04,27,09,56,9.10
2011,04,27,09,57,9.10
2011,04,27,09,58,9.10
2011,04,27,09,59,9.00
2011,04,27,10,00,8.90
2011,04,27,10,01,8.90
2011,04,27,10,02,9.00
2011,04,27,10,03,9.10
2011,04,27,10,04,9.10
2011,04,27,10,05,9.10
2011,04,27,10,06,9.20
2011,04,27,10,07,9.20
2011,04,27,10,08,9.10
2011,04,27,10,09,9.10
2011,04,27,10,10,9.10
2011,04,27,10,11,9.10
2011,04,27,10,12,9.00
2011,04,27,10,13,9.00
2011,04,27,10,14,9.00
2011,04,27,10,15,9.00
2011,04,27,10,16,9.10
2011,04,27,10,17,9.10
2011,04,27,10,18,9.10
2011,04,27,10,19,9.00
2011,04,27,10,20,9.00
2011,04,27,10,21,9.00
2011,04,27,10,22,8.90
2011,04,27,10,23,8.90
2011,04,27,10,24,8.90
2011,04,27,10,25,8.90
2011,04,27,10,26,9.00
2011,04,27,10,27,9.00
2011,04,27,10,28,9.00
2011,04,27,10,29,9.00
2011,04,27,10,30,9.00
2011,04,27,10,31,8.90
2011,04,27,10,32,8.90
2011,04,27,10,33,8.90
2011,04,27,10,34,8.80
2011,04,27,10,35,8.80
2011,04,27,10,36,8.80
2011,04,27,10,37,8.90
2011,04,27,10,38,9.00
2011,04,27,10,39,9.10
2011,04,27,10,40,9.10
2011,04,27,10,41,9.10
2011,04,27,10,42,9.10
2011,04,27,10,43,9.20
2011,04,27,10,44,9.30
2011,04,27,10,45,9.30
2011,04,27,10,46,9.30
2011,04,27,10,47,9.20
2011,04,27,10,48,9.10
2011,04,27,10,49,9.00
2011,04,27,10,50,8.90
2011,04,27,10,51,8.90
2011,04,27,10,52,9.00
2011,04,27,10,53,9.00
2011,04,27,10,54,9.00
2011,04,27,10,55,9.00
2011,04,27,10,56,9.00
2011,04,27,10,57,9.00
2011,04,27,10,58,9.00
2011,04,27,10,59,9.10
2011,04,27,11,00,9.10
2011,04,27,11,01,9.20
2011,04,27,11,02,9.20
2011,04,27,11,03,9.20
2011,04,27,11,04,9.20
2011,04,27,11,05,9.20
2011,04,27,11,06,9.10
2011,04,27,11,07,9.00
2011,04,27,11,08,8.80
2011,04,27,11,09,8.70
2011,04,27,11,10,8.60
2011,04,27,11,11,8.60
2011,04,27,11,12,8.50
2011,04,27,11,13,8.50
2011,04,27,11,14,8.50
2011,04,27,11,15,8.50
2011,04,27,11,16,8.50
2011,04,27,11,17,8.50
2011,04,27,11,18,8.50
2011,04,27,11,19,8.40
2011,04,27,11,20,8.40
2011,04,27,11,21,8.40
2011,04,27,11,22,8.40
2011,04,27,11,23,8.40
2011,04,27,11,24,8.30
2011,04,27,11,25,8.30
2011,04,27,11,26,8.30
2011,04,27,11,27,8.30
2011,04,27,11,28,8.30
2011,04,27,11,29,8.30
2011,04,27,11,30,8.30
2011,04,27,11,31,8.30
2011,04,27,11,32,8.30
2011,04,27,11,33,8.40
2011,04,27,11,34,8.40
2011,04,27,11,35,8.40
2011,04,27,11,36,8.40
2011,04,27,11,37,8.40
2011,04,27,11,38,8.40
2011,04,27,11,39,8.40
2011,04,27,11,40,8.50
2011,04,27,11,41,8.50
2011,04,27,11,42,8.50
2011,04,27,11,43,8.60
2011,04,27,11,44,8.60
2011,04,27,11,45,8.60
2011,04,27,11,46,8.70
2011,04,27,11,47,8.80
2011,04,27,11,48,8.80
2011,04,27,11,49,8.80
2011,04,27,11,50,8.80
2011,04,27,11,51,8.90
2011,04,27,11,52,8.90
2011,04,27,11,53,8.90
2011,04,27,11,54,8.90
2011,04,27,11,55,8.90
2011,04,27,11,56,8.90
2011,04,27,11,57,8.90
2011,04,27,11,58,8.90
2011,04,27,11,59,8.90
2011,04,27,12,00,8.90
2011,04,27,12,01,8.90
2011,04,27,12,02,8.90
2011,04,27,12,03,8.90
2011,04,27,12,04,8.90
2011,04,27,12,05,8.90
2011,04,27,12,06,8.90
2011,04,27,12,07,9.00
2011,04,27,12,08,9.00
2011,04,27,12,09,9.00
2011,04,27,12,10,9.00
2011,04,27,12,11,9.10
2011,04,27,12,12,9.10
2011,04,27,12,13,9.10
2011,04,27,12,14,9.10
2011,04,27,12,15,9.10
2011,04,27,12,16,9.10
2011,04,27,12,17,9.10
2011,04,27,12,18,9.10
2011,04,27,12,19,9.10
2011,04,27,12,20,9.10
2011,04,27,12,21,9.10
2011,04,27,12,22,9.10
2011,04,27,12,23,9.10
2011,04,27,12,24,9.10
2011,04,27,12,25,9.10
2011,04,27,12,26,9.10
2011,04,27,12,27,9.10
2011,04,27,12,28,9.10
2011,04,27,12,29,9.10
2011,04,27,12,30,9.10
2011,04,27,12,31,9.10
2011,04,27,12,32,9.10
2011,04,27,12,33,9.20
2011,04,27,12,34,9.20
2011,04,27,12,35,9.20
2011,04,27,12,36,9.20
2011,04,27,12,37,9.20
2011,04,27,12,38,9.20
2011,04,27,12,39,9.20
2011,04,27,12,40,9.30
2011,04,27,12,41,9.30
2011,04,27,12,42,9.30
2011,04,27,12,43,9.30
2011,04,27,12,44,9.30
2011,04,27,12,45,9.30
2011,04,27,12,46,9.30
2011,04,27,12,47,9.30
2011,04,27,12,48,9.30
2011,04,27,12,49,9.30
2011,04,27,12,50,9.30
2011,04,27,12,51,9.30
2011,04,27,12,52,9.30
2011,04,27,12,53,9.30
2011,04,27,12,54,9.30
2011,04,27,12,55,9.30
2011,04,27,12,56,9.30
2011,04,27,12,57,9.30
2011,04,27,12,58,9.30
2011,04,27,12,59,9.30
2011,04,27,13,00,9.30
2011,04,27,13,01,9.30
2011,04,27,13,02,9.30
2011,04,27,13,03,9.30
2011,04,27,13,04,9.30
2011,04,27,13,05,9.30
2011,04,27,13,06,9.30
2011,04,27,13,07,9.30
2011,04,27,13,08,9.30
2011,04,27,13,09,9.30
2011,04,27,13,10,9.30
2011,04,27,13,11,9.30
2011,04,27,13,12,9.30
2011,04,27,13,13,9.30
2011,04,27,13,14,9.30
2011,04,27,13,15,9.30
2011,04,27,13,16,9.30
2011,04,27,13,17,9.30
2011,04,27,13,18,9.30
2011,04,27,13,19,9.30
2011,04,27,13,20,9.20
2011,04,27,13,21,9.20
2011,04,27,13,22,9.20
2011,04,27,13,23,9.10
2011,04,27,13,24,9.00
2011,04,27,13,25,8.90
2011,04,27,13,26,8.80
2011,04,27,13,27,8.70
2011,04,27,13,28,8.60
2011,04,27,13,29,8.50
2011,04,27,13,30,8.50
2011,04,27,13,31,8.40
2011,04,27,13,32,8.30
2011,04,27,13,33,8.20
2011,04,27,13,34,8.10
2011,04,27,13,35,8.00
2011,04,27,13,36,7.90
2011,04,27,13,37,7.90
2011,04,27,13,38,7.80
2011,04,27,13,39,7.70
2011,04,27,13,40,7.60
2011,04,27,13,41,7.60
2011,04,27,13,42,7.50
2011,04,27,13,43,7.40
2011,04,27,13,44,7.40
2011,04,27,13,45,7.30
2011,04,27,13,46,7.30
2011,04,27,13,47,7.20
2011,04,27,13,48,7.10
2011,04,27,13,49,7.00
2011,04,27,13,50,7.00
2011,04,27,13,51,6.90
2011,04,27,13,52,6.80
2011,04,27,13,53,6.80
2011,04,27,13,54,6.70
2011,04,27,13,55,6.60
2011,04,27,13,56,6.60
2011,04,27,13,57,6.50
2011,04,27,13,58,6.40
2011,04,27,13,59,6.40
2011,04,27,14,00,6.30
2011,04,27,14,01,6.20
2011,04,27,14,02,6.20
2011,04,27,14,03,6.20
2011,04,27,14,04,6.10
2011,04,27,14,05,6.10
2011,04,27,14,06,6.00
2011,04,27,14,07,6.00
2011,04,27,14,08,6.00
2011,04,27,14,09,5.90
2011,04,27,14,10,5.90
2011,04,27,14,11,5.80
2011,04,27,14,12,5.80
2011,04,27,14,13,5.80
2011,04,27,14,14,5.80
2011,04,27,14,15,5.70
2011,04,27,14,16,5.70
2011,04,27,14,17,5.70
2011,04,27,14,18,5.70
2011,04,27,14,19,5.70
2011,04,27,14,20,5.60
2011,04,27,14,21,5.60
2011,04,27,14,22,5.60
2011,04,27,14,23,5.60
2011,04,27,14,24,5.60
2011,04,27,14,25,5.60
2011,04,27,14,26,5.50
2011,04,27,14,27,5.50
2011,04,27,14,28,5.50
2011,04,27,14,29,5.50
2011,04,27,14,30,5.40
2011,04,27,14,31,5.40
2011,04,27,14,32,5.40
2011,04,27,14,33,5.40
2011,04,27,14,34,5.40
2011,04,27,14,35,5.40
2011,04,27,14,36,5.40
2011,04,27,14,37,5.40
2011,04,27,14,38,5.40
2011,04,27,14,39,5.30
2011,04,27,14,40,5.30
2011,04,27,14,41,5.30
2011,04,27,14,42,5.30
2011,04,27,14,43,5.30
2011,04,27,14,44,5.30
2011,04,27,14,45,5.30
2011,04,27,14,46,5.30
2011,04,27,14,47,5.30
2011,04,27,14,48,5.30
2011,04,27,14,49,5.30
2011,04,27,14,50,5.30
2011,04,27,14,51,5.30
2011,04,27,14,52,5.40
2011,04,27,14,53,5.40
2011,04,27,14,54,5.40
2011,04,27,14,55,5.40
2011,04,27,14,56,5.50
2011,04,27,14,57,5.60
2011,04,27,14,58,5.60
2011,04,27,14,59,5.60
2011,04,27,15,00,5.60
2011,04,27,15,01,5.50
2011,04,27,15,02,5.50
2011,04,27,15,03,5.60
2011,04,27,15,04,5.60
2011,04,27,15,05,5.70
2011,04,27,15,06,5.70
2011,04,27,15,07,5.70
2011,04,27,15,08,5.80
2011,04,27,15,09,5.80
2011,04,27,15,10,5.80
2011,04,27,15,11,5.80
2011,04,27,15,12,5.90
2011,04,27,15,13,5.90
2011,04,27,15,14,5.90
2011,04,27,15,15,6.00
2011,04,27,15,16,6.00
2011,04,27,15,17,6.00
2011,04,27,15,18,6.00
2011,04,27,15,19,6.00
2011,04,27,15,20,6.00
2011,04,27,15,21,6.10
2011,04,27,15,22,6.10
2011,04,27,15,23,6.10
2011,04,27,15,24,6.00
2011,04,27,15,25,6.00
2011,04,27,15,26,6.00
2011,04,27,15,27,6.10
2011,04,27,15,28,6.10
2011,04,27,15,29,6.10
2011,04,27,15,30,6.20
2011,04,27,15,31,6.20
2011,04,27,15,32,6.20
2011,04,27,15,33,6.20
2011,04,27,15,34,6.20
2011,04,27,15,35,6.20
2011,04,27,15,36,6.20
2011,04,27,15,37,6.30
2011,04,27,15,38,6.30
2011,04,27,15,39,6.30
2011,04,27,15,40,6.30
2011,04,27,15,41,6.30
2011,04,27,15,42,6.30
2011,04,27,15,43,6.40
2011,04,27,15,44,6.40
2011,04,27,15,45,6.40
2011,04,27,15,46,6.40
2011,04,27,15,47,6.40
2011,04,27,15,48,6.40
2011,04,27,15,49,6.40
2011,04,27,15,50,6.50
2011,04,27,15,51,6.50
2011,04,27,15,52,6.60
2011,04,27,15,53,6.60
2011,04,27,15,54,6.60
2011,04,27,15,55,6.60
2011,04,27,15,56,6.50
2011,04,27,15,57,6.50
2011,04,27,15,58,6.50
2011,04,27,15,59,6.50
2011,04,27,16,00,6.40
2011,04,27,16,01,6.40
2011,04,27,16,02,6.40
2011,04,27,16,03,6.40
2011,04,27,16,04,6.40
2011,04,27,16,05,6.40
2011,04,27,16,06,6.40
2011,04,27,16,07,6.40
2011,04,27,16,08,6.40
2011,04,27,16,09,6.40
2011,04,27,16,10,6.40
2011,04,27,16,11,6.30
2011,04,27,16,12,6.30
2011,04,27,16,13,6.30
2011,04,27,16,14,6.30
2011,04,27,16,15,6.30
2011,04,27,16,16,6.30
2011,04,27,16,17,6.30
2011,04,27,16,18,6.20
2011,04,27,16,19,6.20
2011,04,27,16,20,6.20
2011,04,27,16,21,6.20
2011,04,27,16,22,6.20
2011,04,27,16,23,6.20
2011,04,27,16,24,6.10
2011,04,27,16,25,6.10
2011,04,27,16,26,6.10
2011,04,27,16,27,6.10
2011,04,27,16,28,6.10
2011,04,27,16,29,6.00
2011,04,27,16,30,6.00
2011,04,27,16,31,6.00
2011,04,27,16,32,6.00
2011,04,27,16,33,6.00
2011,04,27,16,34,6.00
2011,04,27,16,35,6.10
2011,04,27,16,36,6.10
2011,04,27,16,37,6.10
2011,04,27,16,38,6.10
2011,04,27,16,39,6.10
2011,04,27,16,40,6.10
2011,04,27,16,41,6.10
2011,04,27,16,42,6.10
2011,04,27,16,43,6.10
2011,04,27,16,44,6.10
2011,04,27,16,45,6.10
2011,04,27,16,46,6.10
2011,04,27,16,47,6.10
2011,04,27,16,48,6.10
2011,04,27,16,49,6.10
2011,04,27,16,50,6.10
2011,04,27,16,51,6.20
2011,04,27,16,52,6.20
2011,04,27,16,53,6.20
2011,04,27,16,54,6.20
2011,04,27,16,55,6.20
2011,04,27,16,56,6.20
2011,04,27,16,57,6.20
2011,04,27,16,58,6.20
2011,04,27,16,59,6.20
2011,04,27,17,00,6.20
2011,04,27,17,01,6.20
2011,04,27,17,02,6.10
2011,04,27,17,03,6.10
2011,04,27,17,04,6.10
2011,04,27,17,05,6.10
2011,04,27,17,06,6.10
2011,04,27,17,07,6.10
2011,04,27,17,08,6.10
2011,04,27,17,09,6.10
2011,04,27,17,10,6.00
2011,04,27,17,11,6.00
2011,04,27,17,12,6.00
2011,04,27,17,13,6.00
2011,04,27,17,14,5.90
2011,04,27,17,15,5.90
2011,04,27,17,16,5.90
2011,04,27,17,17,5.90
2011,04,27,17,18,5.90
2011,04,27,17,19,5.80
2011,04,27,17,20,5.80
2011,04,27,17,21,5.80
2011,04,27,17,22,5.80
2011,04,27,17,23,5.80
2011,04,27,17,24,5.80
2011,04,27,17,25,5.70
2011,04,27,17,26,5.70
2011,04,27,17,27,5.70
2011,04,27,17,28,5.70
2011,04,27,17,29,5.70
2011,04,27,17,30,5.70
2011,04,27,17,31,5.70
2011,04,27,17,32,5.70
2011,04,27,17,33,5.70
2011,04,27,17,34,5.70
2011,04,27,17,35,5.70
2011,04,27,17,36,5.70
2011,04,27,17,37,5.60
2011,04,27,17,38,5.60
2011,04,27,17,39,5.60
2011,04,27,17,40,5.60
2011,04,27,17,41,5.60
2011,04,27,17,42,5.60
2011,04,27,17,43,5.70
2011,04,27,17,44,5.70
2011,04,27,17,45,5.70
2011,04,27,17,46,5.70
2011,04,27,17,47,5.70
2011,04,27,17,48,5.70
2011,04,27,17,49,5.70
2011,04,27,17,50,5.70
2011,04,27,17,51,5.70
2011,04,27,17,52,5.70
2011,04,27,17,53,5.70
2011,04,27,17,54,5.70
2011,04,27,17,55,5.70
2011,04,27,17,56,5.70
2011,04,27,17,57,5.70
2011,04,27,17,58,5.80
2011,04,27,17,59,5.80
2011,04,27,18,00,5.80
2011,04,27,18,01,5.80
2011,04,27,18,02,5.80
2011,04,27,18,03,5.80
2011,04,27,18,04,5.80
2011,04,27,18,05,5.80
2011,04,27,18,06,5.80